This is the latest recevied weather packets stored in our database for station/object LU5DTF-WX. If no packets are shown the sender has not sent any weather packets the latest 10 day(s).
| Time | Temp. | Humidity | Pressure | Rain* | Wind** | Luminosity | Snow |
|---|---|---|---|---|---|---|---|
| 1787956203 | 13.89° C | 58% | 1011.1 hPa | 0 mm | - | - | - |
| 1787955903 | 13.89° C | 56% | 1011 hPa | 0 mm | - | - | - |
| 1787955603 | 13.33° C | 60% | 1010.9 hPa | 0 mm | - | - | - |
| 1787955303 | 13.33° C | 61% | 1010.8 hPa | 0 mm | - | - | - |
| 1787955003 | 13.33° C | 60% | 1010.7 hPa | 0 mm | - | - | - |
| 1787954703 | 13.33° C | 61% | 1010.7 hPa | 0 mm | - | - | - |
| 1787954403 | 13.33° C | 61% | 1010.6 hPa | 0 mm | - | - | - |
| 1787954103 | 13.33° C | 61% | 1010.6 hPa | 0 mm | - | - | - |
| 1787953803 | 13.33° C | 62% | 1010.5 hPa | 0 mm | - | - | - |
| 1787953503 | 13.33° C | 63% | 1010.5 hPa | 0 mm | - | - | - |
| 1787953203 | 13.33° C | 64% | 1010.7 hPa | 0 mm | - | - | - |
| 1787952903 | 13.33° C | 68% | 1010.6 hPa | 0 mm | - | - | - |
| 1787952603 | 13.33° C | 70% | 1010.6 hPa | 0 mm | - | - | - |
| 1787952303 | 13.33° C | 70% | 1010.4 hPa | 0 mm | - | - | - |
| 1787952003 | 13.33° C | 71% | 1010.5 hPa | 0 mm | - | - | - |
| 1787951703 | 13.33° C | 71% | 1010.5 hPa | 0 mm | - | - | - |
| 1787951403 | 13.33° C | 72% | 1010.5 hPa | 0 mm | - | - | - |
| 1787951103 | 13.33° C | 70% | 1010.4 hPa | 0 mm | - | - | - |
| 1787950803 | 13.89° C | 70% | 1010.4 hPa | 0 mm | - | - | - |
| 1787950503 | 13.89° C | 70% | 1010.3 hPa | 0 mm | - | - | - |
| 1787950203 | 13.89° C | 70% | 1010.4 hPa | 0 mm | - | - | - |
| 1787949903 | 13.89° C | 71% | 1010.3 hPa | 0 mm | - | - | - |
| 1787949603 | 13.89° C | 71% | 1010.2 hPa | 0 mm | - | - | - |
| 1787949303 | 13.89° C | 73% | 1010.2 hPa | 0 mm | - | - | - |
| 1787949003 | 13.89° C | 74% | 1010 hPa | 0 mm | - | - | - |
* Rain latest hour (hover to see other rain measurements)
** Current wind speed in m/s (hover to see current wind gust speed)